Date String (YYYY-MM-DD hh:mm:ss) UTC,Instrument flags,Ambient pressure (hPa),Sample flow (lpm),Bypass flow (lpm),Sample temperature (°C),Ambient temperature (°C),ASC tube jacket temperature (°C),LED temperature (°C),Box temperature (°C),Sample RH (%),Span deviation,Mass concentration (μg/m³),Mass concentration (μg/m³),Mass concentration (μg/m³)
DateTimeUTC,F1_M11,P_M11,Q1_M11,Q2_M11,T1_M11,T2_M11,T3_M11,T4_M11,T5_M11,U1_M11,ZSPAN_M11,X0_M11,X2_M11,X1_M11
2022-02-16 01:00:00,,0814.0,5.00,0.00,29.5,28.5,00.0,38.5,31.2,07.4,0003.8,0021.83,0010.82,0009.18
2022-02-16 01:01:00,,0814.0,5.00,0.00,29.5,28.5,00.0,38.5,31.2,07.5,0003.9,0020.60,0010.77,0009.16
2022-02-16 01:02:00,,0814.0,5.00,0.00,29.5,28.5,00.0,38.5,31.2,07.6,0003.6,0021.71,0010.78,0009.18
2022-02-16 01:03:00,,0814.0,5.00,0.00,29.5,28.5,00.0,38.5,31.2,07.7,0003.0,0022.61,0010.77,0009.22
2022-02-16 01:04:00,,0814.0,5.01,0.00,29.5,28.6,00.0,38.5,31.1,07.7,0002.3,0023.42,0010.84,0009.29
2022-02-16 01:05:00,,0814.3,4.98,0.00,29.5,28.6,00.0,38.5,31.1,07.8,0002.2,0025.13,0011.02,0009.42
2022-02-16 01:06:00,,0814.2,5.00,0.00,29.4,28.6,00.0,38.5,31.1,07.7,0002.6,0025.60,0011.11,0009.50
2022-02-16 01:07:00,,0814.1,5.00,0.00,29.4,28.6,00.0,38.5,31.1,07.6,0003.1,0026.33,0011.11,0009.56
2022-02-16 01:08:00,,0814.2,5.00,0.00,29.4,28.6,00.0,38.5,31.1,07.6,0003.4,0027.37,0011.12,0009.60
2022-02-16 01:09:00,,0814.1,5.00,0.00,29.4,28.6,00.0,38.5,31.1,07.7,0003.5,0027.25,0011.16,0009.67
2022-02-16 01:10:00,,0814.1,5.01,0.00,29.4,28.6,00.0,38.5,31.2,07.6,0003.8,0027.78,0011.23,0009.73
2022-02-16 01:11:00,,0814.2,4.98,0.00,29.4,28.6,00.0,38.5,31.1,07.6,0003.8,0028.83,0011.25,0009.77
2022-02-16 01:12:00,,0814.2,5.02,0.00,29.4,28.6,00.0,38.4,31.1,07.6,0003.6,0028.90,0011.27,0009.80
2022-02-16 01:13:00,,0814.2,5.00,0.00,29.4,28.6,00.0,38.4,31.1,07.6,0004.4,0028.49,0011.31,0009.79
2022-02-16 01:14:00,,0814.3,5.02,0.00,29.4,28.6,00.0,38.4,31.1,07.6,0005.0,0027.46,0011.32,0009.79
2022-02-16 01:15:00,,0814.2,5.00,0.00,29.4,28.6,00.0,38.4,31.1,07.4,0005.4,0027.57,0011.31,0009.75
2022-02-16 01:16:00,,0814.4,5.00,0.00,29.4,28.6,00.0,38.4,31.1,07.3,0005.4,0027.42,0011.18,0009.66
2022-02-16 01:17:00,,0814.2,4.99,0.00,29.4,28.5,00.0,38.4,31.1,07.4,0005.2,0026.46,0011.11,0009.59
2022-02-16 01:18:00,,0814.3,5.00,0.00,29.4,28.5,00.0,38.4,31.1,07.4,0005.3,0025.54,0011.18,0009.58
2022-02-16 01:19:00,,0814.2,5.00,0.00,29.4,28.5,00.0,38.4,31.1,07.5,0005.4,0024.67,0011.20,0009.56
2022-02-16 01:20:00,,0814.2,5.02,0.00,29.4,28.5,00.0,38.4,31.1,07.4,0004.7,0024.62,0011.11,0009.49
2022-02-16 01:21:00,,0814.2,4.99,0.00,29.4,28.5,00.0,38.4,31.1,07.3,0004.2,0023.93,0010.93,0009.43
2022-02-16 01:22:00,,0814.3,5.00,0.00,29.4,28.5,00.0,38.4,31.1,07.3,0004.6,0022.56,0010.82,0009.36
2022-02-16 01:23:00,,0814.3,4.98,0.00,29.4,28.5,00.0,38.4,31.1,07.3,0004.9,0022.63,0010.72,0009.29
2022-02-16 01:24:00,,0814.1,5.01,0.00,29.4,28.5,00.0,38.4,31.1,07.3,0004.7,0022.26,0010.61,0009.24
2022-02-16 01:25:00,,0814.2,4.99,0.00,29.4,28.5,00.0,38.4,31.1,07.4,0004.9,0022.09,0010.54,0009.18
2022-02-16 01:26:00,,0814.2,5.01,0.00,29.4,28.5,00.0,38.4,31.1,06.0,0004.8,0021.13,0010.34,0009.00
2022-02-16 01:27:00,,0814.1,5.00,0.00,29.3,28.5,00.0,38.4,31.1,05.2,0004.8,0019.96,0009.89,0008.58
2022-02-16 01:28:00,,0814.2,5.00,0.00,29.3,28.5,00.0,38.4,31.0,06.4,0004.8,0020.35,0009.69,0008.37
2022-02-16 01:29:00,,0814.3,4.99,0.00,29.3,28.5,00.0,38.4,31.0,06.5,0004.2,0020.11,0009.40,0008.14
2022-02-16 01:30:00,,0814.2,5.00,0.00,29.3,28.4,00.0,38.4,31.0,07.1,0003.7,0020.47,0009.30,0008.06
2022-02-16 01:31:00,,0814.2,5.01,0.00,29.3,28.4,00.0,38.4,31.0,07.1,0004.5,0020.08,0009.22,0008.00
2022-02-16 01:32:00,,0814.2,4.99,0.00,29.3,28.4,00.0,38.4,31.0,07.0,0005.2,0020.63,0009.07,0007.83
2022-02-16 01:33:00,,0814.2,4.99,0.00,29.3,28.4,00.0,38.3,31.0,07.1,0004.9,0020.72,0009.02,0007.75
2022-02-16 01:34:00,,0814.2,5.00,0.00,29.3,28.4,00.0,38.3,30.9,06.6,0004.7,0020.66,0008.91,0007.65
2022-02-16 01:35:00,,0814.3,5.00,0.00,29.2,28.4,00.0,38.3,30.9,06.5,0004.1,0020.72,0008.72,0007.49
2022-02-16 01:36:00,,0814.4,4.99,0.00,29.2,28.4,00.0,38.3,30.9,06.6,0003.3,0019.48,0008.49,0007.34
2022-02-16 01:37:00,,0814.4,5.01,0.00,29.2,28.3,00.0,38.3,30.8,06.8,0003.0,0019.29,0008.52,0007.39
2022-02-16 01:38:00,,0814.4,4.99,0.00,29.2,28.3,00.0,38.3,30.8,07.2,0002.4,0020.18,0008.93,0007.73
2022-02-16 01:39:00,,0814.4,5.01,0.00,29.1,28.1,00.0,38.3,30.8,07.5,0002.2,0019.64,0009.07,0007.86
2022-02-16 01:40:00,,0814.4,5.00,0.00,29.1,28.1,00.0,38.2,30.8,07.6,0001.8,0020.31,0009.26,0008.04
2022-02-16 01:41:00,,0814.4,5.00,0.00,29.1,28.1,00.0,38.2,30.8,07.6,0000.0,0020.58,0009.36,0008.10
2022-02-16 01:42:00,,0814.4,5.00,0.00,29.1,28.1,00.0,38.2,30.8,07.6,0000.9,0021.07,0009.50,0008.20
2022-02-16 01:43:00,,0814.4,5.01,0.00,29.1,28.1,00.0,38.2,30.9,07.7,0002.8,0021.46,0009.77,0008.41
2022-02-16 01:44:00,,0814.4,5.01,0.00,29.1,28.2,00.0,38.2,30.9,07.7,0002.9,0021.63,0009.98,0008.59
2022-02-16 01:45:00,,0814.5,4.99,0.00,29.1,28.2,00.0,38.2,30.9,07.7,0003.3,0022.80,0010.29,0008.81
2022-02-16 01:46:00,,0815.0,5.01,0.00,29.2,28.2,00.0,38.2,30.9,07.8,0000.6,0023.30,0010.60,0009.07
2022-02-16 01:47:00,,0814.7,5.00,0.00,29.2,28.2,00.0,38.2,30.9,07.8,0000.0,0024.71,0010.95,0009.35
2022-02-16 01:48:00,,0814.9,4.98,0.00,29.1,28.3,00.0,38.2,30.9,07.8,0003.1,0025.28,0011.21,0009.57
2022-02-16 01:49:00,,0815.0,5.02,0.00,29.1,28.3,00.0,38.2,30.8,07.8,0004.2,0025.18,0011.39,0009.77
2022-02-16 01:50:00,,0814.9,4.99,0.00,29.1,28.3,00.0,38.2,30.8,07.8,0004.5,0025.15,0011.53,0009.92
2022-02-16 01:51:00,,0815.0,5.00,0.00,29.1,28.2,00.0,38.2,30.8,07.2,0004.0,0024.40,0011.50,0009.92
2022-02-16 01:52:00,,0815.0,5.01,0.00,29.1,28.2,00.0,38.1,30.8,07.3,0004.0,0023.38,0011.41,0009.88
2022-02-16 01:53:00,,0815.1,4.98,0.00,29.1,28.3,00.0,38.1,30.8,07.3,0004.2,0022.66,0011.32,0009.81
2022-02-16 01:54:00,,0815.0,5.02,0.00,29.1,28.2,00.0,38.1,30.8,07.2,0004.9,0022.34,0011.11,0009.70
2022-02-16 01:55:00,,0815.0,5.01,0.00,29.1,28.1,00.0,38.1,30.8,07.2,0004.7,0022.79,0010.86,0009.56
2022-02-16 01:56:00,,0815.0,4.99,0.00,29.1,28.1,00.0,38.1,30.8,07.1,0004.2,0021.20,0010.59,0009.39
2022-02-16 01:57:00,,0814.9,5.01,0.00,29.1,28.1,00.0,38.1,30.8,07.1,0004.1,0021.40,0010.36,0009.22
2022-02-16 01:58:00,,0815.0,4.99,0.00,29.1,28.2,00.0,38.1,30.8,07.2,0003.6,0021.15,0010.18,0009.07
2022-02-16 01:59:00,,0814.6,5.01,0.00,29.1,28.2,00.0,38.1,30.8,07.1,0000.0,0021.29,0010.04,0008.91
